El Dorado International Airport
SKBO : now visible

Airfield :











YOU CAN JOIN US ON...

 
LOGIN :

Register | Disclaimer

   EN    FR    IT 

 









Legend :    VFR   Marginal VFR   IFR   Intensive IFR   Very Intensive IFR
Visi :
Ceiling :
>= 8 km
>= 3000ft
5 to 8 km
1000 to 3000 ft
1500m to 5 km
500 to 1000 ft
800 to 1500m
200 to 500 ft
< 800m
< 200 ft
Symbols :   Thunderstorms  Fog  Heavy snow  Heavy precipitations  Wind > 20 kt






- Airport Elevation : 8361 ft
- IATA code : BOG


SKBO - El Dorado International

CURRENT METAR :
  • 170700Z VRB02KT 9999 FEW017 09/07 Q1029 NOSIG RMK A3040

EXPIRED METARs :
  • 170600Z 02003KT 9999 NSC 09/07 Q1030 NOSIG RMK A3042
  • 170500Z 15006KT 110V180 9999 FEW017 11/06 Q1030 NOSIG RMK A3044

TAF TAF SKBO
Valid from the 17 at 06:00 until the 18 at 06:00 UTC


170430Z 1706/1806 VRB02KT 9999 SCT015
BECMG 1716/1718 15012KT SCT023 TX21/1719Z TN07/1710Z
SKED FIR / South America



MET'MAP, your aeronautical weather chart ! - Copyright ORBIFLY December 2007 - Disclaimer

ORBIFLY MET'MAP TEAM :

Programming & Development : Alexandra Zaïnal
Concept & original design : Baudouin d'Aumeries
Assistance for programming : Marc-Olivier Méhu
Technical & hardware support : Manuel Goepfert

Contact : metmap@orbifly.com




SOURCES & CREDITS :

   NOAA       Earth
Advisory